Tracking 30166 objects as of 22-Jan-2025
HD Live streaming from Space Station
objects crossing your sky now

UNISAT 7

Track UNISAT 7 now!
10-day predictions
UNISAT 7 is classified as:


NORAD ID: 47945
Int'l Code: 2021-022P
Perigee: 488.6 km
Apogee: 508.4 km
Inclination: 97.4 °
Period: 94.4 minutes
Semi major axis: 6869 km
RCS: Unknown
Launch date: March 22, 2021
Source: (ITA)
Launch site: TYURATAM MISSILE AND SPACE COMPLEX (TTMTR)

Uplink (MHz):
Downlink (MHz): 437.425
Beacon (MHz):
Mode: 9600bps FSK
Call sign: II0US
Status: Active

Your satellite tracking list
Your tracking list is empty




NASA's NSSDC Master Catalog

Two Line Element Set (TLE):
1 47945U 21022P   25021.67320594  .00017982  00000-0  72430-3 0  9998
2 47945  97.4369 280.9054 0014397  94.2329 266.0554 15.24817545211510
Source of the keplerian elements: AFSPC